sat.trackr.live / text

‹ back to catalog

HULIANWANG DIGUI-75

NORAD 65307 · 2025-187C

PAYLOAD ACTIVE UNKNOWN

§ Identity

Operator
Country
PRC
Launch date
2025-08-25
Launch site
WSC
Launch vehicle
Mass (kg)
RCS (m²)

External: N2YO · Heavens-Above · Gunter

§ Orbital elements

Epoch: 2026-05-25T04:10:49.973664Z

Period
108.33 min
Inclination
50.0093°
Eccentricity
0.0000602
Mean motion
13.29322336 rev/d
Perigee alt
1,148.9 km
Apogee alt
1,149.8 km
Semi-major
7,527.5 km
B*
6.7669e-5
RAAN
288.1960°
Arg perigee
98.2017°
Mean anomaly
261.8923°
Rev number
3,664

§ Raw data

HULIANWANG DIGUI-751 65307U 25187C   26145.17418951 -.00000093  00000+0  67669-4 0  99982 65307  50.0093 288.1960 0000602  98.2017 261.8923 13.29322336 36643

JSON: /api/v1/satellites/65307 · /tle

For live sub-satellite position, see the globe view (requires WebGL).

§ Visibility from observer

Set your observer location to see the next 7 days of passes ≥ 10°. The values pass through the URL so the page stays shareable.

No JS? Fill the form by hand. The geolocation button needs JavaScript.